CW2274 Weather Reports


time (UTC)temp
C
wind
direction
speed
KPH
gust
KPH
rain 1hr
cm
rain 24hr
cm
rain mn
cm
humidity
%
barometer
mb
20210224233331 25 281 11.3 22.5 0.00 0.00 0.00 6 1014.5
20210224232939 25 274 12.9 22.5 0.00 0.00 0.00 6 1014.5
20210224232343 26 287 1.6 14.5 0.00 0.00 0.00 6 1014.5
20210224231822 25 287 3.2 16.1 0.00 0.00 0.00 6 1014.5
20210224231324 25 231 6.4 24.1 0.00 0.00 0.00 6 1014.5
20210224230814 26 254 12.9 24.1 0.00 0.00 0.00 6 1014.5
20210224230329 26 260 8.0 17.7 0.00 0.00 0.00 6 1014.6
20210224225821 26 283 4.8 17.7 0.00 0.00 0.00 7 1014.8
20210224225315 26 268 8.0 17.7 0.00 0.00 0.00 8 1014.8
20210224224830 26 258 4.8 14.5 0.00 0.00 0.00 7 1014.8
20210224224327 26 310 4.8 14.5 0.00 0.00 0.00 7 1014.8
20210224223821 26 269 8.0 14.5 0.00 0.00 0.00 8 1015.0
20210224223320 26 267 1.6 19.3 0.00 0.00 0.00 7 1014.9
20210224222948 26 281 9.7 19.3 0.00 0.00 0.00 7 1015.0
20210224222347 26 257 4.8 14.5 0.00 0.00 0.00 7 1015.0
20210224221821 26 258 4.8 17.7 0.00 0.00 0.00 7 1015.1
20210224221316 26 290 6.4 17.7 0.00 0.00 0.00 7 1015.3
20210224220832 26 276 8.0 14.5 0.00 0.00 0.00 7 1015.3
20210224220324 26 277 4.8 16.1 0.00 0.00 0.00 7 1015.3
20210224215815 26 282 6.4 17.7 0.00 0.00 0.00 7 1015.4
20210224215440 26 288 6.4 25.7 0.00 0.00 0.00 7 1015.3
20210224214934 27 280 9.7 17.7 0.00 0.00 0.00 7 1015.3
20210224214325 26 289 3.2 12.9 0.00 0.00 0.00 7 1015.4
20210224213819 26 249 1.6 16.1 0.00 0.00 0.00 7 1015.6
20210224213332 26 234 3.2 17.7 0.00 0.00 0.00 7 1015.6
20210224212919 26 261 8.0 16.1 0.00 0.00 0.00 7 1015.6
20210224212335 26 258 1.6 11.3 0.00 0.00 0.00 7 1015.7
20210224211816 25 226 3.2 16.1 0.00 0.00 0.00 6 1015.6
20210224211337 26 275 3.2 24.1 0.00 0.00 0.00 7 1015.5
20210224210825 26 197 11.3 24.1 0.00 0.00 0.00 6 1015.6
20210224210335 26 237 4.8 20.9 0.00 0.00 0.00 6 1015.7
20210224205835 26 250 12.9 20.9 0.00 0.00 0.00 6 1015.8
20210224205326 26 229 8.0 16.1 0.00 0.00 0.00 6 1015.9
20210224204851 26 244 6.4 16.1 0.00 0.00 0.00 6 1016.0
20210224204332 26 204 8.0 16.1 0.00 0.00 0.00 6 1016.1
20210224203829 25 230 6.4 16.1 0.00 0.00 0.00 6 1016.1
20210224203323 26 211 4.8 17.7 0.00 0.00 0.00 6 1016.1
20210224202919 26 206 6.4 19.3 0.00 0.00 0.00 6 1016.2
20210224202338 26 268 9.7 17.7 0.00 0.00 0.00 7 1016.3
20210224201825 26 226 4.8 11.3 0.00 0.00 0.00 6 1016.5
20210224201322 25 244 4.8 20.9 0.00 0.00 0.00 7 1016.7
20210224200812 26 278 6.4 20.9 0.00 0.00 0.00 7 1016.8
20210224200326 25 232 3.2 17.7 0.00 0.00 0.00 6 1016.8
20210224195823 26 269 9.7 17.7 0.00 0.00 0.00 7 1016.9
20210224195406 25 216 8.0 17.7 0.00 0.00 0.00 7 1016.9
20210224195020 26 247 8.0 14.5 0.00 0.00 0.00 7 1017.2
20210224194325 25 269 6.4 14.5 0.00 0.00 0.00 7 1017.3
20210224193822 25 233 4.8 14.5 0.00 0.00 0.00 7 1017.4
20210224193316 24 226 1.6 12.9 0.00 0.00 0.00 7 1017.5
20210224192923 24 227 6.4 12.9 0.00 0.00 0.00 7 1017.4
20210224192339 24 169 3.2 12.9 0.00 0.00 0.00 8 1017.6
20210224191821 23 220 4.8 14.5 0.00 0.00 0.00 8 1017.7
20210224191315 23 126 3.2 14.5 0.00 0.00 0.00 8 1017.7
20210224190830 24 94 6.4 11.3 0.00 0.00 0.00 8 1017.8
20210224190323 23 108 4.8 9.7 0.00 0.00 0.00 9 1018.0
20210224185816 23 110 4.8 11.3 0.00 0.00 0.00 8 1018.0
20210224185426 22 115 4.8 12.9 0.00 0.00 0.00 9 1018.3
20210224184933 23 113 6.4 9.7 0.00 0.00 0.00 8 1018.2
20210224184323 22 106 4.8 9.7 0.00 0.00 0.00 9 1018.3
20210224183818 22 106 6.4 12.9 0.00 0.00 0.00 9 1018.3
20210224183312 22 110 6.4 9.7 0.00 0.00 0.00 9 1018.4
20210224182903 22 115 4.8 9.7 0.00 0.00 0.00 10 1018.5
20210224182322 22 127 4.8 8.0 0.00 0.00 0.00 10 1018.6
20210224181820 21 130 4.8 8.0 0.00 0.00 0.00 10 1018.6
20210224181330 21 140 6.4 9.7 0.00 0.00 0.00 10 1018.6
20210224180837 21 150 4.8 9.7 0.00 0.00 0.00 10 1018.6
20210224180324 20 112 3.2 9.7 0.00 0.00 0.00 11 1018.8
20210224175818 20 111 4.8 9.7 0.00 0.00 0.00 11 1018.7
20210224175342 20 117 3.2 9.7 0.00 0.00 0.00 11 1018.8
20210224174834 20 113 4.8 9.7 0.00 0.00 0.00 12 1018.8
20210224174322 20 108 6.4 12.9 0.00 0.00 0.00 11 1018.8
20210224173819 20 116 4.8 12.9 0.00 0.00 0.00 12 1018.8
20210224173318 19 114 6.4 12.9 0.00 0.00 0.00 12 1018.8
20210224172852 18 96 6.4 12.9 0.00 0.00 0.00 12 1018.9
20210224172323 18 124 4.8 12.9 0.00 0.00 0.00 12 1018.8
20210224171817 17 133 6.4 14.5 0.00 0.00 0.00 13 1018.9
20210224171313 17 135 8.0 14.5 0.00 0.00 0.00 13 1018.9
20210224170827 17 105 6.4 14.5 0.00 0.00 0.00 13 1019.0
20210224170322 16 129 6.4 14.5 0.00 0.00 0.00 14 1019.1
20210224165814 16 99 6.4 14.5 0.00 0.00 0.00 14 1019.0
20210224165316 16 121 8.0 14.5 0.00 0.00 0.00 15 1019.1
20210224164845 15 140 4.8 14.5 0.00 0.00 0.00 15 1019.1
20210224164327 15 141 6.4 14.5 0.00 0.00 0.00 16 1019.1
20210224163816 15 116 6.4 14.5 0.00 0.00 0.00 16 1019.1
20210224163330 15 135 4.8 14.5 0.00 0.00 0.00 16 1019.0
20210224162826 13 100 6.4 14.5 0.00 0.00 0.00 17 1019.1
20210224162324 13 146 8.0 12.9 0.00 0.00 0.00 17 1019.2
20210224161820 13 106 4.8 12.9 0.00 0.00 0.00 18 1019.3
20210224161317 13 112 6.4 12.9 0.00 0.00 0.00 18 1019.2
20210224160833 12 127 6.4 14.5 0.00 0.00 0.00 19 1019.2
20210224160326 12 112 6.4 16.1 0.00 0.00 0.00 18 1019.2
20210224155817 11 149 6.4 16.1 0.00 0.00 0.00 19 1019.2
20210224155352 11 154 4.8 17.7 0.00 0.00 0.00 19 1019.2
20210224154902 11 147 6.4 17.7 0.00 0.00 0.00 19 1019.2
20210224154317 11 155 4.8 14.5 0.00 0.00 0.00 19 1019.2
20210224153816 11 147 6.4 14.5 0.00 0.00 0.00 20 1019.1
20210224153336 10 150 6.4 17.7 0.00 0.00 0.00 20 1019.1
20210224152830 10 196 3.2 17.7 0.00 0.00 0.00 21 1019.2
20210224152327 10 145 6.4 14.5 0.00 0.00 0.00 20 1019.1
20210224151815 10 164 6.4 20.9 0.00 0.00 0.00 21 1019.2
20210224151330 9 159 8.0 20.9 0.00 0.00 0.00 21 1019.3
20210224150833 9 159 4.8 14.5 0.00 0.00 0.00 21 1019.2
20210224150322 8 180 4.8 14.5 0.00 0.00 0.00 21 1019.0
20210224145819 8 150 6.4 14.5 0.00 0.00 0.00 22 1018.9
20210224145325 8 145 4.8 12.9 0.00 0.00 0.00 23 1019.0
20210224144920 7 128 6.4 14.5 0.00 0.00 0.00 24 1018.9
20210224144320 7 127 6.4 14.5 0.00 0.00 0.00 24 1018.8
20210224143814 7 117 8.0 14.5 0.00 0.00 0.00 24 1018.7
20210224143329 6 147 4.8 16.1 0.00 0.00 0.00 25 1018.7
20210224142911 6 136 4.8 16.1 0.00 0.00 0.00 25 1018.7
20210224142322 6 144 4.8 12.9 0.00 0.00 0.00 26 1018.6
20210224141816 6 152 4.8 12.9 0.00 0.00 0.00 26 1018.5
20210224141312 6 148 3.2 9.7 0.00 0.00 0.00 26 1018.6
20210224140826 6 148 3.2 9.7 0.00 0.00 0.00 26 1018.4
20210224140322 6 150 3.2 9.7 0.00 0.00 0.00 26 1018.5
20210224135816 6 151 6.4 9.7 0.00 0.00 0.00 25 1018.4
20210224135330 6 154 3.2 12.9 0.00 0.00 0.00 25 1018.4
20210224134831 6 155 4.8 14.5 0.00 0.00 0.00 25 1018.4
20210224134323 6 169 4.8 14.5 0.00 0.00 0.00 25 1018.4
20210224133819 6 164 4.8 12.9 0.00 0.00 0.00 25 1018.4
20210224133314 6 179 1.6 8.0 0.00 0.00 0.00 26 1018.4
20210224133011 6 179 1.6 8.0 0.00 0.00 0.00 26 1018.3
20210224132418 6 181 3.2 6.4 0.00 0.00 0.00 26 1018.4
20210224131818 6 181 1.6 8.0 0.00 0.00 0.00 26 1018.4
20210224131314 6 181 3.2 8.0 0.00 0.00 0.00 26 1018.3
20210224130829 6 182 1.6 4.8 0.00 0.00 0.00 27 1018.3
20210224130326 6 182 3.2 4.8 0.00 0.00 0.00 27 1018.2
20210224125820 6 182 1.6 4.8 0.00 0.00 0.00 27 1018.0
20210224125527 6 182 1.6 4.8 0.00 0.00 0.00 27 1018.1
20210224124922 6 182 1.6 3.2 0.00 0.00 0.00 27 1018.1
20210224124318 6 182 1.6 3.2 0.00 0.00 0.00 27 1018.3
20210224123815 6 182 0.0 4.8 0.00 0.00 0.00 27 1018.2
20210224123331 6 182 1.6 4.8 0.00 0.00 0.00 27 1018.0
20210224123000 6 182 1.6 4.8 0.00 0.00 0.00 27 1018.0
20210224122321 5 182 1.6 4.8 0.00 0.00 0.00 28 1018.1
20210224121817 6 182 0.0 4.8 0.00 0.00 0.00 28 1018.0
20210224121329 6 182 1.6 4.8 0.00 0.00 0.00 27 1018.0
20210224120823 6 182 0.0 3.2 0.00 0.00 0.00 28 1018.0
20210224120317 6 182 1.6 3.2 0.00 0.00 0.00 28 1017.9
20210224115819 6 182 1.6 4.8 0.00 0.00 0.00 27 1017.9
20210224115412 5 182 1.6 4.8 0.00 0.00 0.00 28 1017.8
20210224114916 6 182 1.6 4.8 0.00 0.00 0.00 27 1017.8
20210224114318 6 182 1.6 4.8 0.00 0.00 0.00 27 1017.5
20210224113832 6 182 1.6 4.8 0.00 0.00 0.00 27 1017.6
20210224113328 6 182 0.0 4.8 0.00 0.00 0.00 27 1017.6
20210224112849 6 182 0.0 6.4 0.00 0.00 0.00 27 1017.5
20210224112316 6 182 3.2 6.4 0.00 0.00 0.00 27 1017.5
20210224111815 6 183 1.6 6.4 0.00 0.00 0.00 27 1017.4
20210224111331 6 183 1.6 6.4 0.00 0.00 0.00 27 1017.4
20210224110826 6 183 3.2 8.0 0.00 0.00 0.00 26 1017.4
20210224110319 7 183 3.2 9.7 0.00 0.00 0.00 25 1017.5
20210224105814 7 183 4.8 9.7 0.00 0.00 0.00 25 1017.5
20210224105329 7 190 4.8 8.0 0.00 0.00 0.00 24 1017.4
20210224104837 7 192 4.8 8.0 0.00 0.00 0.00 25 1017.4
20210224104322 7 193 3.2 8.0 0.00 0.00 0.00 25 1017.4
20210224103816 7 194 1.6 6.4 0.00 0.00 0.00 25 1017.5
20210224103329 7 194 1.6 4.8 0.00 0.00 0.00 25 1017.5
20210224102846 7 194 1.6 6.4 0.00 0.00 0.00 25 1017.4
20210224102343 7 194 1.6 6.4 0.00 0.00 0.00 25 1017.5
20210224101812 8 194 3.2 6.4 0.00 0.00 0.00 24 1017.5
20210224101328 8 194 3.2 6.4 0.00 0.00 0.00 25 1017.5
20210224100823 7 194 1.6 6.4 0.00 0.00 0.00 25 1017.6
20210224100322 7 195 0.0 9.7 0.00 0.00 0.00 26 1017.7
20210224095815 7 194 3.2 9.7 0.00 0.00 0.00 27 1017.7
20210224095335 7 194 0.0 4.8 0.00 0.00 0.00 27 1017.8
20210224094900 7 194 1.6 4.8 0.00 0.00 0.00 26 1017.7
20210224094317 8 194 0.0 4.8 0.00 0.00 0.00 25 1017.9
20210224093812 8 194 1.6 6.4 0.00 0.00 0.00 25 1017.8
20210224093332 7 194 3.2 6.4 0.00 0.00 0.00 27 1017.8
20210224092845 7 194 1.6 4.8 0.00 0.00 0.00 27 1017.8
20210224092319 7 194 3.2 4.8 0.00 0.00 0.00 27 1017.7
20210224091812 7 194 3.2 4.8 0.00 0.00 0.00 26 1017.7
20210224091330 8 194 3.2 4.8 0.00 0.00 0.00 25 1017.7
20210224090822 8 194 1.6 4.8 0.00 0.00 0.00 25 1017.7
20210224090319 8 194 1.6 6.4 0.00 0.00 0.00 25 1017.9
20210224085829 8 194 1.6 6.4 0.00 0.00 0.00 25 1017.9
20210224085333 8 195 1.6 4.8 0.00 0.00 0.00 25 1018.0
20210224084932 8 194 1.6 6.4 0.00 0.00 0.00 25 1017.9
20210224084320 9 195 3.2 9.7 0.00 0.00 0.00 24 1017.9
20210224083835 9 195 1.6 9.7 0.00 0.00 0.00 24 1017.9
20210224083324 10 196 4.8 8.0 0.00 0.00 0.00 24 1018.0
20210224082851 10 199 1.6 9.7 0.00 0.00 0.00 24 1017.9
20210224082332 10 199 3.2 9.7 0.00 0.00 0.00 24 1017.7
20210224081824 9 207 3.2 8.0 0.00 0.00 0.00 24 1017.6
20210224081323 9 211 3.2 8.0 0.00 0.00 0.00 24 1017.6
20210224080818 9 211 1.6 8.0 0.00 0.00 0.00 25 1017.7
20210224080312 10 289 1.6 3.2 0.00 0.00 0.00 24 1017.6
20210224075827 9 289 1.6 3.2 0.00 0.00 0.00 25 1017.6
20210224075422 9 289 0.0 3.2 0.00 0.00 0.00 27 1017.6
20210224074844 9 289 0.0 3.2 0.00 0.00 0.00 26 1017.5
20210224074329 10 289 0.0 4.8 0.00 0.00 0.00 26 1017.5
20210224073823 8 289 1.6 4.8 0.00 0.00 0.00 29 1017.6
20210224073317 8 289 1.6 3.2 0.00 0.00 0.00 30 1017.5
20210224072854 8 289 1.6 3.2 0.00 0.00 0.00 29 1017.6
20210224072330 8 289 1.6 3.2 0.00 0.00 0.00 30 1017.6
20210224071821 8 289 1.6 3.2 0.00 0.00 0.00 30 1017.5
20210224071314 8 289 3.2 3.2 0.00 0.00 0.00 29 1017.5
20210224070828 8 289 3.2 3.2 0.00 0.00 0.00 30 1017.6
20210224070323 9 289 0.0 3.2 0.00 0.00 0.00 28 1017.5
20210224065824 8 289 1.6 3.2 0.00 0.00 0.00 29 1017.5
20210224065434 9 289 3.2 3.2 0.00 0.00 0.00 28 1017.5
20210224065424 9 289 3.2 3.2 0.00 0.00 0.00 28 1017.5
20210224064932 10 289 0.0 4.8 0.00 0.00 0.00 24 1017.5
20210224064322 9 289 3.2 4.8 0.00 0.00 0.00 28 1017.5
20210224063815 9 289 3.2 4.8 0.00 0.00 0.00 28 1017.5
20210224063332 9 289 1.6 3.2 0.00 0.00 0.00 28 1017.6
20210224062856 10 289 3.2 3.2 0.00 0.00 0.00 27 1017.6
20210224062318 10 289 0.0 4.8 0.00 0.00 0.00 27 1017.6
20210224061813 9 289 0.0 6.4 0.00 0.00 0.00 28 1017.5
20210224061338 10 289 4.8 6.4 0.00 0.00 0.00 26 1017.5
20210224060826 10 289 3.2 3.2 0.00 0.00 0.00 27 1017.5
20210224060318 10 289 0.0 3.2 0.00 0.00 0.00 26 1017.5
20210224055828 10 289 1.6 4.8 0.00 0.00 0.00 25 1017.5
20210224055342 11 289 3.2 4.8 0.00 0.00 0.00 25 1017.4
20210224054830 11 289 0.0 3.2 0.00 0.00 0.00 25 1017.5
20210224054331 10 289 0.0 3.2 0.00 0.00 0.00 25 1017.5
20210224053825 11 289 1.6 3.2 0.00 0.00 0.00 24 1017.5
20210224053324 11 289 0.0 4.8 0.00 0.00 0.00 23 1017.5
20210224052928 12 289 3.2 4.8 0.00 0.00 0.00 22 1017.4
20210224052313 12 289 3.2 6.4 0.00 0.00 0.00 22 1017.5
20210224051827 12 289 3.2 6.4 0.00 0.00 0.00 22 1017.5
20210224051320 12 289 4.8 6.4 0.00 0.00 0.00 22 1017.5
20210224050813 12 289 4.8 6.4 0.00 0.00 0.00 21 1017.5
20210224050329 12 289 3.2 6.4 0.00 0.00 0.00 22 1017.5
20210224045822 13 289 4.8 6.4 0.00 0.00 0.00 20 1017.5
20210224045315 13 289 4.8 6.4 0.00 0.00 0.00 20 1017.4
20210224044837 13 289 3.2 4.8 0.00 0.00 0.00 19 1017.3
20210224044328 14 289 3.2 4.8 0.00 0.00 0.00 19 1017.4
20210224043824 13 289 1.6 4.8 0.00 0.00 0.00 20 1017.4
20210224043331 13 289 3.2 4.8 0.00 0.00 0.00 19 1017.4
20210224042828 13 289 3.2 4.8 0.00 0.00 0.00 21 1017.2
20210224042326 13 289 1.6 4.8 0.00 0.00 0.00 20 1017.1
20210224041820 13 289 3.2 4.8 0.00 0.00 0.00 20 1017.1
20210224041317 13 289 3.2 6.4 0.00 0.00 0.00 19 1017.0
20210224040829 15 289 3.2 6.4 0.00 0.00 0.00 17 1016.9
20210224040320 14 289 4.8 6.4 0.00 0.00 0.00 18 1016.8
20210224035831 15 289 4.8 4.8 0.00 0.00 0.00 18 1016.7
20210224035325 14 289 3.2 4.8 0.00 0.00 0.00 18 1016.6
20210224034819 14 289 3.2 4.8 0.00 0.00 0.00 19 1016.7
20210224034318 14 289 3.2 4.8 0.00 0.00 0.00 18 1016.6
20210224033831 14 289 3.2 6.4 0.00 0.00 0.00 19 1016.6
20210224033324 15 289 3.2 6.4 0.00 0.00 0.00 18 1016.5
20210224032832 15 289 3.2 3.2 0.00 0.00 0.00 17 1016.4
20210224032323 15 289 0.0 4.8 0.00 0.00 0.00 18 1016.4
20210224031827 15 289 3.2 6.4 0.00 0.00 0.00 17 1016.3
20210224031324 15 289 3.2 6.4 0.00 0.00 0.00 18 1016.3
20210224030816 15 289 3.2 4.8 0.00 0.00 0.00 18 1016.2
20210224030313 15 289 3.2 4.8 0.00 0.00 0.00 18 1016.2
20210224025827 15 289 3.2 4.8 0.00 0.00 0.00 18 1016.2
20210224025336 15 289 1.6 3.2 0.00 0.00 0.00 17 1016.1
20210224024853 15 289 0.0 3.2 0.00 0.00 0.00 17 1016.0
20210224024333 15 290 1.6 3.2 0.00 0.00 0.00 18 1016.0
20210224023822 15 289 1.6 3.2 0.00 0.00 0.00 18 1015.9
20210224023320 16 289 1.6 3.2 0.00 0.00 0.00 16 1016.0
20210224022917 16 289 1.6 3.2 0.00 0.00 0.00 16 1016.0
20210224022329 17 289 1.6 3.2 0.00 0.00 0.00 15 1016.0
20210224021821 17 290 1.6 1.6 0.00 0.00 0.00 16 1015.9
20210224021337 17 289 0.0 1.6 0.00 0.00 0.00 14 1015.9
20210224020824 18 289 0.0 3.2 0.00 0.00 0.00 13 1015.8
20210224020318 18 289 0.0 3.2 0.00 0.00 0.00 13 1015.8
20210224015830 18 289 1.6 3.2 0.00 0.00 0.00 12 1015.8
20210224015323 18 289 1.6 4.8 0.00 0.00 0.00 13 1015.8
20210224014822 19 289 1.6 4.8 0.00 0.00 0.00 12 1015.6
20210224014317 19 289 1.6 6.4 0.00 0.00 0.00 11 1015.6
20210224013831 20 289 1.6 9.7 0.00 0.00 0.00 11 1015.6
20210224013327 20 289 3.2 9.7 0.00 0.00 0.00 11 1015.5
20210224012930 20 290 3.2 9.7 0.00 0.00 0.00 11 1015.5
20210224012318 20 290 3.2 9.7 0.00 0.00 0.00 10 1015.6
20210224011830 20 290 3.2 9.7 0.00 0.00 0.00 10 1015.5
20210224011326 21 287 3.2 11.3 0.00 0.00 0.00 10 1015.6
20210224010823 21 293 3.2 8.0 0.00 0.00 0.00 10 1015.4
20210224010317 21 314 3.2 9.7 0.00 0.00 0.00 10 1015.4
20210224005829 21 290 3.2 12.9 0.00 0.00 0.00 10 1015.4
20210224005350 22 312 3.2 12.9 0.00 0.00 0.00 10 1015.4
20210224004849 22 300 3.2 12.9 0.00 0.00 0.00 10 1015.3
20210224004329 22 331 4.8 12.9 0.00 0.00 0.00 10 1015.4
20210224003823 22 271 3.2 12.9 0.00 0.00 0.00 10 1015.4
20210224003324 22 300 4.8 12.9 0.00 0.00 0.00 9 1015.3
20210224002911 23 7 3.2 16.1 0.00 0.00 0.00 9 1015.3
20210224002347 23 280 6.4 16.1 0.00 0.00 0.00 9 1015.2
20210224001824 23 296 4.8 19.3 0.00 0.00 0.00 9 1015.1
20210224001318 23 291 9.7 19.3 0.00 0.00 0.00 8 1015.1
20210224000815 23 294 6.4 17.7 0.00 0.00 0.00 9 1015.2
20210224000329 24 319 4.8 17.7 0.00 0.00 0.00 8 1015.3
20210223235821 24 287 4.8 17.7 0.00 0.00 0.00 9 1015.2
20210223235336 25 297 6.4 16.1 0.00 0.00 0.00 8 1015.2
20210223234815 25 312 4.8 11.3 0.00 0.00 0.00 8 1015.0
20210223234329 25 312 4.8 9.7 0.00 0.00 0.00 7 1015.0
20210223233823 25 327 6.4 12.9 0.00 0.00 0.00 6 1015.0